Regional Weather Roundup
Issued by NWS

Home | Current Version | Previous Version | Graphics & Text | Print | Product List | Glossary On
Versions: 1 2 3 4 5 6 7 8 9 10 11 12 13 14 15 16 17 18 19 20 21 22 23 24 25 26 27 28 29 30 31 32 33 34 35 36 37 38 39 40 41 42 43 44 45 46 47 48 49 50
000
ASUS43 KLSX 272210
RWRMO

WEATHER SUMMARY FOR MISSOURI
NATIONAL WEATHER SERVICE SPRINGFIELD MO
400 PM CST MON FEB 27 2017

NOTE: "FAIR" INDICATES FEW OR NO CLOUDS BELOW 12,000 FEET WITH NO
       SIGNIFICANT WEATHER AND/OR OBSTRUCTIONS TO VISIBILITY.
       CURRENT SKY AND/OR WEATHER CONDITIONS ARE NOT AVAILABLE FOR
       CHILLICOTHE AND FARMINGTON.

MOZ001>031-035>038-043-044-053-054-272300-
...NORTHERN AND WESTERN MISSOURI...

CITY           SKY/WX    TMP DP  RH WIND       PRES   REMARKS
KANSAS CTY INT PTSUNNY   61  33  35 SE18      29.81F
KANSAS C DTWN  CLOUDY    63  34  33 SE12G21   29.82F
LEE`S SUMMIT   CLOUDY    63  35  35 SE14      29.84F
ST JOSEPH      MOSUNNY   61  33  35 SE14      29.81F
CHILLICOTHE      N/A     62  30  29 S8G18     29.89F
KIRKSVILLE     MOSUNNY   60  27  28 SE16      29.92F

$$
MOZ066>068-077>081-088>096-101>105-272300-
...SOUTHWEST MISSOURI...

CITY           SKY/WX    TMP DP  RH WIND       PRES   REMARKS
SPRINGFIELD    SUNNY     64  44  48 SE14G25   29.90F
JOPLIN         PTSUNNY   67  52  58 S21       29.86F
BRANSON        PTSUNNY   66  48  52 SE15      29.94F

$$
MOZ032>034-039>042-045>050-055>058-069>072-272300-
...CENTRAL MISSOURI...

CITY           SKY/WX    TMP DP  RH WIND       PRES   REMARKS
COLUMBIA       MOSUNNY   65  34  31 SE16G23   29.92F
JEFFERSON CITY MOSUNNY   64  34  32 SE15      29.93F
ROLLA          CLOUDY    63  35  35 S14G23    29.95S
SEDALIA        CLOUDY    64  36  35 S18G24    29.90F
WHITEMAN AFB   PTSUNNY   62  36  37 S12G24    29.86F
WARRENSBURG    PTSUNNY   64  32  29 SE17      29.85F
OSAGE BEACH    CLOUDY    64  37  36 S8        29.93F

$$
MOZ051-052-059>065-272300-
...EAST CENTRAL MISSOURI...

CITY           SKY/WX    TMP DP  RH WIND       PRES   REMARKS
ST LOUIS INTL  MOSUNNY   65  39  38 S12       30.01F
SPIRIT OF STL  MOSUNNY   66  36  32 S14       29.98F
ST CHARLES     SUNNY     64  37  36 S13       29.99F

$$
MOZ072>076-082>087-097>100-106>115-272300-
...SOUTH CENTRAL AND SOUTHEAST MISSOURI...

CITY           SKY/WX    TMP DP  RH WIND       PRES   REMARKS
CAPE GIRARDEAU SUNNY     62  48  60 S14       30.05F
FARMINGTON     SUNNY     64  44  48 SE14      30.01F
POPLAR BLUFF   PTSUNNY   60  51  72 S14       30.05S
WEST PLAINS    PTSUNNY   63  44  50 SE13      30.00S

$$



USA.gov is the U.S. government's official web portal to all federal, state and local government web resources and services.